Location: Eastchurch
(51.4000°N, 0.8667°E)
Time: 00:07:09
(UTC+00:00)

YAOGAN 1 - Pass Details

Date: 19 January 2026
Orbit: 605 x 607 km, 97.8° (Epoch: 18 February)

Event Time Altitude Azimuth Distance (km) Brightness Sun altitude
Rises 18:56:16 0° 189° (S) 2,854 6.1 -23.2°
Reaches altitude 10° 18:58:36 10° 199° (SSW) 1,955 5.4 -23.6°
Maximum altitude 19:02:28 33° 264° (W) 1,021 4.2 -24.2°
Drops below altitude 10° 19:06:22 10° 330° (NNW) 1,969 5.5 -24.8°
Sets 19:08:43 0° 339° (NNW) 2,878 6.2 -25.1°
